QPF
0.00 0.00 0.00 0.00 0.00 0.00 0.00 0.00 0.00 0.00 0.00 0.00 0.00 0.00 0.00 0.00 0.00 0.00 0.00 0.00 0.00 0.00 0.00 0.00 0.00 0.00 0.00 0.00 0.00 0.00 0.00 0.00 0.00 0.00 0.00 0.00 0.00 0.00 0.00 0.00 0.00 0.00 0.00
0.00 0.00 0.00 0.00 0.00 0.00 0.00 0.00 0.00 0.00 0.00 0.00 0.00 0.00 0.00 0.00 0.00 0.00 0.00 0.00 0.00 0.00 0.00 0.00 0.00 0.00 0.00 0.00 0.00 0.00 0.00 0.00 0.00 0.00 0.00 0.00 0.00 0.00 0.00 0.00 0.00 0.00 0.00
0.00 0.00 0.00 0.00 0.00 0.00 0.00 0.00 0.00 0.00 0.00 0.00 0.00 0.00 0.00 0.00 0.00 0.00 0.00 0.00 0.00 0.00 0.00 0.00 0.00 0.00 0.00 0.00 0.00 0.00 0.00 0.00 0.00 0.00 0.00 0.00 0.00 0.00 0.00 0.00 0.00 0.00 0.00
0.00 0.00 0.00 0.00 0.00 0.00 0.00 0.00 0.00 0.00 0.00 0.00 0.00 0.00 0.00 0.00 0.00 0.00 0.00 0.00 0.00 0.00 0.00 0.00 0.00 0.00 0.00 0.00 0.00 0.00 0.00 0.00 0.00 0.00 0.00 0.00 0.00 0.00 0.00 0.00 0.00 0.00 0.00
0.00 0.00 0.00 0.00 0.00 0.00 0.00 0.00 0.00 0.00 0.00 0.00 0.00 0.00 0.00 0.00 0.00 0.00 0.00 0.00 0.00 0.00 0.00 0.00 0.00 0.00 0.00 0.00 0.00 0.00 0.00 0.00 0.00 0.00 0.00 0.00 0.00 0.00 0.00 0.00 0.00 0.00 0.00
0.00 0.00 0.00 0.00 0.00 0.00 0.00 0.00 0.00 0.00 0.00 0.00 0.00 0.00 0.00 0.00 0.00 0.00 0.00 0.00 0.00 0.00 0.00 0.00 0.00 0.00 0.00 0.00 0.00 0.00 0.00 0.00 0.00 0.00 0.00 0.00 0.00 0.00 0.00 0.00 0.00 0.00 0.00
0.03 0.01 0.00 0.00 0.00 0.00 0.00 0.00 0.00 0.00 0.00 0.02 0.02 0.00 0.00 0.00 0.00 0.00 0.00 0.00 0.00 0.00 0.00 0.00 0.00 0.00 0.00 0.00 0.00 0.00 0.00 0.00 0.00 0.00 0.00 0.00 0.00 0.00 0.00 0.00 0.00 0.00 0.00
0.02 0.02 0.01 0.00 0.00 0.00 0.00 0.00 0.01 0.01 0.02 0.06 0.09 0.03 0.00 0.00 0.00 0.00 0.00 0.00 0.00 0.00 0.00 0.00 0.00 0.00 0.00 0.00 0.00 0.00 0.00 0.00 0.00 0.00 0.00 0.00 0.00 0.00 0.00 0.00 0.00 0.00 0.00
0.01 0.01 0.02 0.01 0.00 0.00 0.00 0.00 0.00 0.01 0.03 0.05 0.07 0.06 0.01 0.00 0.00 0.00 0.00 0.00 0.00 0.00 0.00 0.00 0.00 0.01 0.01 0.00 0.00 0.00 0.00 0.00 0.00 0.00 0.00 0.00 0.00 0.00 0.00 0.00 0.00 0.00 0.00
0.00 0.00 0.00 0.00 0.00 0.00 0.00 0.00 0.00 0.01 0.02 0.01 0.02 0.03 0.03 0.01 0.01 0.00 0.00 0.00 0.00 0.00 0.00 0.00 0.00 0.00 0.00 0.00 0.00 0.00 0.00 0.00 0.00 0.00 0.00 0.00 0.00 0.00 0.00 0.00 0.00 0.00 0.00
0.00 0.00 0.00 0.00 0.00 0.01 0.00 0.00 0.00 0.00 0.00 0.01 0.01 0.01 0.01 0.02 0.01 0.01 0.00 0.00 0.01 0.02 0.01 0.00 0.00 0.00 0.00 0.00 0.00 0.00 0.00 0.00 0.00 0.00 0.00 0.00 0.00 0.00 0.00 0.00 0.00 0.00 0.00
0.00 0.00 0.00 0.00 0.00 0.00 0.00 0.01 0.01 0.00 0.00 0.01 0.01 0.02 0.02 0.02 0.02 0.02 0.01 0.00 0.00 0.01 0.00 0.00 0.00 0.00 0.00 0.00 0.00 0.00 0.00 0.00 0.00 0.00 0.00 0.00 0.00 0.00 0.00 0.00 0.00 0.00 0.00
0.00 0.00 0.00 0.00 0.00 0.00 0.00 0.00 0.00 0.00 0.02 0.02 0.02 0.01 0.01 0.02 0.03 0.03 0.02 0.02 0.01 0.00 0.00 0.00 0.00 0.00 0.00 0.00 0.00 0.00 0.00 0.00 0.00 0.00 0.00 0.00 0.00 0.00 0.00 0.00 0.00 0.00 0.00
0.00 0.00 0.00 0.00 0.00 0.00 0.00 0.00 0.00 0.00 0.00 0.01 0.00 0.00 0.00 0.00 0.00 0.01 0.02 0.02 0.01 0.00 0.00 0.00 0.00 0.00 0.00 0.00 0.00 0.00 0.00 0.00 0.00 0.00 0.00 0.00 0.00 0.00 0.00 0.00 0.00 0.00 0.01
0.00 0.00 0.00 0.00 0.00 0.00 0.00 0.00 0.00 0.00 0.00 0.00 0.00 0.00 0.00 0.00 0.00 0.00 0.01 0.01 0.01 0.01 0.00 0.00 0.00 0.00 0.00 0.00 0.00 0.00 0.00 0.00 0.00 0.00 0.00 0.00 0.00 0.00 0.01 0.01 0.01 0.01 0.01
0.00 0.00 0.00 0.00 0.00 0.00 0.00 0.00 0.00 0.00 0.00 0.00 0.00 0.00 0.00 0.00 0.00 0.00 0.00 0.00 0.00 0.01 0.01 0.00 0.00 0.00 0.00 0.00 0.00 0.00 0.00 0.00 0.00 0.00 0.00 0.00 0.00 0.01 0.01 0.01 0.01 0.01 0.01
0.00 0.00 0.00 0.00 0.00 0.00 0.00 0.00 0.00 0.00 0.00 0.00 0.00 0.00 0.00 0.00 0.00 0.00 0.00 0.00 0.00 0.00 0.00 0.00 0.00 0.00 0.00 0.00 0.00 0.00 0.00 0.00 0.00 0.01 0.01 0.01 0.01 0.01 0.01 0.01 0.01 0.01 0.00
0.00 0.00 0.00 0.00 0.00 0.00 0.00 0.00 0.00 0.00 0.00 0.00 0.00 0.00 0.00 0.00 0.00 0.00 0.00 0.00 0.00 0.00 0.00 0.00 0.00 0.00 0.00 0.00 0.00 0.00 0.00 0.00 0.00 0.00 0.00 0.01 0.01 0.01 0.01 0.01 0.00 0.00 0.00
0.00 0.00 0.00 0.00 0.00 0.00 0.00 0.00 0.00 0.00 0.00 0.00 0.00 0.00 0.00 0.00 0.00 0.00 0.00 0.00 0.00 0.00 0.00 0.00 0.00 0.00 0.00 0.00 0.00 0.00 0.00 0.00 0.00 0.00 0.00 0.01 0.01 0.01 0.00 0.00 0.00 0.00 0.00
0.00 0.00 0.00 0.00 0.00 0.00 0.00 0.00 0.00 0.00 0.00 0.00 0.00 0.00 0.00 0.00 0.00 0.00 0.00 0.00 0.00 0.00 0.00 0.00 0.00 0.00 0.00 0.00 0.00 0.00 0.00 0.00 0.00 0.00 0.00 0.00 0.00 0.00 0.00 0.00 0.00 0.00 0.00
0.00 0.00 0.00 0.00 0.00 0.00 0.00 0.00 0.00 0.00 0.00 0.00 0.00 0.00 0.00 0.00 0.00 0.00 0.00 0.00 0.00 0.00 0.00 0.00 0.00 0.00 0.00 0.00 0.00 0.00 0.00 0.00 0.00 0.00 0.00 0.00 0.00 0.00 0.00 0.00 0.00 0.00 0.00
0.00 0.00 0.00 0.00 0.00 0.00 0.00 0.00 0.00 0.00 0.00 0.00 0.00 0.00 0.00 0.00 0.00 0.00 0.00 0.00 0.00 0.00 0.00 0.00 0.00 0.00 0.00 0.00 0.00 0.00 0.00 0.00 0.00 0.00 0.00 0.00 0.00 0.00 0.00 0.00 0.00 0.00 0.00
0.00 0.00 0.00 0.00 0.00 0.00 0.00 0.00 0.00 0.00 0.00 0.00 0.00 0.00 0.00 0.00 0.00 0.00 0.00 0.00 0.00 0.00 0.00 0.00 0.00 0.00 0.00 0.00 0.00 0.00 0.00 0.00 0.00 0.00 0.00 0.00 0.00 0.00 0.00 0.00 0.00 0.00 0.00
0.00 0.00 0.00 0.00 0.00 0.00 0.00 0.00 0.00 0.00 0.00 0.00 0.00 0.00 0.00 0.00 0.00 0.00 0.00 0.00 0.00 0.00 0.00 0.00 0.00 0.00 0.00 0.00 0.00 0.00 0.00 0.00 0.00 0.00 0.00 0.00 0.00 0.00 0.00 0.00 0.00 0.00 0.00
0.00 0.00 0.00 0.00 0.00 0.00 0.00 0.00 0.00 0.00 0.00 0.00 0.00 0.00 0.00 0.00 0.00 0.00 0.00 0.00 0.00 0.00 0.00 0.00 0.00 0.00 0.00 0.00 0.00 0.00 0.00 0.00 0.00 0.00 0.00 0.00 0.00 0.00 0.00 0.00 0.00 0.00 0.00
0.00 0.00 0.00 0.00 0.00 0.00 0.00 0.00 0.00 0.00 0.00 0.00 0.00 0.00 0.00 0.00 0.00 0.00 0.00 0.00 0.00 0.00 0.00 0.00 0.00 0.00 0.00 0.00 0.00 0.00 0.00 0.00 0.00 0.00 0.00 0.00 0.00 0.00 0.00 0.00 0.00 0.00 0.00
MSLP
1019.97 1020.06 1020.22 1020.38 1020.51 1020.63 1020.73 1020.94 1021.11 1021.24 1021.39 1021.47 1021.52 1021.53 1021.48 1021.54 1021.52 1021.41 1021.40 1021.33 1021.33 1021.28 1021.42 1021.67 1021.88 1022.05 1022.17 1022.19 1022.23 1022.39 1022.51 1022.67 1022.78 1022.81 1022.78 1022.77 1022.71 1022.65 1022.55 1022.46 1022.54 1022.48 1022.49
1019.66 1019.91 1020.07 1020.19 1020.31 1020.36 1020.39 1020.58 1020.75 1020.98 1021.17 1021.36 1021.35 1021.26 1021.20 1021.27 1021.34 1021.30 1021.29 1021.34 1021.29 1021.30 1021.35 1021.53 1021.70 1021.88 1022.01 1022.15 1022.29 1022.36 1022.56 1022.69 1022.81 1022.91 1023.04 1022.99 1023.03 1022.94 1022.86 1022.76 1022.77 1022.84 1022.70
1019.28 1019.44 1019.68 1019.89 1019.91 1020.03 1020.23 1020.46 1020.54 1020.70 1020.99 1021.11 1021.31 1021.15 1021.04 1020.97 1021.08 1021.04 1021.14 1021.25 1021.33 1021.34 1021.42 1021.44 1021.60 1021.76 1021.87 1022.09 1022.30 1022.42 1022.60 1022.77 1022.89 1023.08 1023.12 1023.20 1023.19 1023.16 1023.10 1023.14 1023.02 1023.05 1023.12
1018.87 1019.09 1019.24 1019.32 1019.35 1019.69 1019.96 1020.26 1020.32 1020.62 1020.74 1020.95 1020.98 1020.96 1020.82 1020.87 1020.85 1020.90 1020.97 1021.09 1021.20 1021.32 1021.34 1021.34 1021.44 1021.52 1021.66 1021.77 1022.03 1022.37 1022.58 1022.74 1022.90 1023.02 1023.12 1023.25 1023.34 1023.38 1023.36 1023.26 1023.31 1023.29 1023.31
1018.27 1018.57 1018.66 1018.63 1018.87 1019.25 1019.54 1019.82 1020.12 1020.34 1020.42 1020.53 1020.60 1020.48 1020.60 1020.70 1020.59 1020.41 1020.60 1020.64 1020.72 1020.86 1021.04 1021.07 1021.07 1021.33 1021.44 1021.54 1021.65 1021.92 1022.27 1022.54 1022.74 1022.87 1023.01 1023.15 1023.19 1023.32 1023.42 1023.40 1023.43 1023.44 1023.39
1017.69 1017.96 1018.14 1018.35 1018.68 1019.00 1019.18 1019.39 1019.65 1019.78 1019.85 1019.90 1020.19 1020.15 1020.13 1020.13 1020.32 1020.25 1020.19 1020.21 1020.27 1020.37 1020.59 1020.80 1020.94 1020.97 1021.15 1021.40 1021.48 1021.63 1021.88 1022.25 1022.50 1022.67 1022.87 1023.01 1023.18 1023.19 1023.26 1023.38 1023.42 1023.43 1023.47
1017.20 1017.41 1017.63 1017.88 1018.16 1018.45 1018.52 1018.78 1019.10 1019.35 1019.57 1019.85 1020.33 1020.16 1019.84 1019.68 1019.84 1019.69 1019.73 1019.79 1019.80 1019.75 1019.96 1020.26 1020.58 1020.88 1020.93 1021.01 1021.19 1021.28 1021.42 1021.78 1022.30 1022.56 1022.71 1022.79 1022.91 1023.06 1023.18 1023.22 1023.27 1023.35 1023.31
1016.97 1017.24 1017.39 1017.49 1017.60 1017.92 1018.08 1018.24 1018.50 1019.00 1019.20 1019.43 1020.19 1020.67 1020.23 1019.72 1019.42 1019.25 1019.30 1019.34 1019.32 1019.54 1019.64 1019.87 1020.06 1020.37 1020.65 1020.84 1020.95 1020.94 1020.99 1021.17 1021.54 1022.05 1022.33 1022.45 1022.56 1022.70 1022.89 1023.06 1023.08 1023.28 1023.20
1016.47 1016.64 1016.79 1016.91 1017.24 1017.39 1017.56 1017.68 1017.97 1018.34 1018.61 1019.16 1019.33 1019.88 1020.23 1020.06 1019.88 1019.00 1018.98 1019.06 1019.06 1019.27 1019.19 1019.57 1019.73 1019.90 1020.13 1020.32 1020.46 1020.46 1020.65 1020.91 1021.04 1021.35 1021.78 1022.25 1022.37 1022.49 1022.59 1022.68 1022.90 1023.11 1023.27
1016.37 1016.40 1016.44 1016.46 1016.54 1016.80 1017.06 1017.08 1017.18 1017.42 1017.94 1018.40 1019.15 1019.08 1019.08 1019.21 1019.55 1019.15 1019.01 1018.81 1018.83 1019.00 1018.94 1019.16 1019.22 1019.29 1019.35 1019.55 1019.78 1020.06 1020.32 1020.67 1020.92 1021.13 1021.26 1021.61 1022.05 1022.30 1022.41 1022.56 1022.75 1022.67 1023.16
1016.54 1016.36 1016.24 1016.09 1016.19 1016.26 1016.35 1016.54 1016.70 1016.90 1017.19 1017.46 1017.95 1018.52 1018.79 1019.13 1019.44 1019.80 1018.81 1018.90 1018.79 1018.75 1018.83 1018.73 1018.59 1018.76 1018.91 1019.04 1019.25 1019.49 1019.82 1020.37 1020.39 1021.17 1020.93 1021.09 1021.28 1021.84 1022.12 1022.28 1022.51 1022.51 1022.95
1016.89 1016.74 1016.53 1016.14 1015.76 1015.78 1015.82 1015.94 1016.18 1016.45 1016.62 1016.82 1017.14 1017.64 1017.98 1018.32 1018.66 1019.22 1019.34 1018.80 1018.88 1018.72 1018.62 1018.55 1018.38 1018.36 1018.29 1018.72 1019.26 1019.50 1019.69 1020.16 1020.54 1020.74 1020.88 1020.79 1021.01 1021.37 1021.90 1022.28 1022.60 1023.04 1023.12
1017.43 1017.24 1016.91 1016.49 1015.98 1015.57 1015.47 1015.62 1015.90 1016.08 1016.27 1016.52 1016.76 1017.06 1017.33 1017.63 1017.85 1018.19 1018.52 1018.52 1018.76 1018.53 1018.41 1018.22 1018.28 1018.31 1018.36 1018.75 1018.93 1019.51 1020.48 1020.11 1019.99 1020.62 1019.81 1020.47 1020.75 1021.80 1021.93 1022.66 1022.72 1022.82 1023.18
1017.68 1017.29 1017.04 1016.64 1016.32 1015.98 1015.59 1015.55 1015.76 1015.93 1016.09 1016.14 1016.27 1016.73 1016.94 1017.05 1017.31 1017.67 1018.11 1018.39 1018.54 1018.53 1018.54 1018.28 1018.52 1018.64 1018.73 1018.92 1019.04 1019.21 1018.72 1019.86 1019.77 1020.22 1020.21 1020.50 1021.11 1021.51 1021.83 1022.55 1022.66 1022.87 1022.99
1017.71 1017.43 1017.11 1016.96 1016.69 1016.37 1016.11 1015.95 1015.90 1016.03 1016.22 1016.30 1016.10 1016.40 1016.76 1016.97 1017.06 1017.30 1017.53 1017.77 1018.12 1018.30 1018.33 1018.32 1018.72 1018.83 1018.86 1019.06 1019.01 1018.74 1018.95 1018.56 1019.46 1019.72 1020.05 1020.66 1021.04 1021.66 1021.92 1022.12 1022.38 1022.52 1022.81
1018.16 1017.93 1017.69 1017.41 1017.19 1017.01 1016.82 1016.63 1016.61 1016.74 1016.77 1016.90 1016.85 1016.85 1017.06 1017.37 1017.45 1017.64 1017.79 1017.94 1018.15 1018.39 1018.48 1018.58 1019.03 1019.19 1019.10 1019.04 1018.80 1019.15 1019.12 1018.76 1018.84 1019.70 1020.20 1020.61 1021.06 1021.68 1021.61 1021.75 1022.15 1022.34 1022.26
1018.74 1018.56 1018.34 1018.11 1017.90 1017.71 1017.52 1017.40 1017.48 1017.44 1017.50 1017.62 1017.61 1017.65 1018.05 1018.12 1018.15 1018.29 1018.40 1018.58 1018.71 1018.86 1019.09 1019.25 1019.38 1019.50 1019.48 1019.34 1019.38 1019.60 1019.71 1019.73 1019.53 1020.05 1020.37 1020.52 1020.78 1021.04 1021.37 1021.64 1021.80 1021.66 1021.75
1019.19 1019.05 1018.85 1018.71 1018.55 1018.41 1018.32 1018.23 1018.22 1018.13 1018.13 1018.26 1018.27 1018.36 1018.53 1018.44 1018.71 1018.90 1018.96 1018.93 1019.20 1019.31 1019.56 1019.67 1019.82 1019.90 1019.92 1019.84 1019.60 1020.09 1020.09 1020.10 1020.56 1020.61 1020.62 1020.70 1021.01 1020.72 1020.93 1021.14 1021.29 1021.40 1021.50
1019.62 1019.51 1019.34 1019.26 1019.21 1019.12 1018.96 1018.86 1018.79 1018.80 1018.75 1018.90 1019.22 1019.26 1019.15 1018.86 1019.07 1019.20 1019.32 1019.36 1019.46 1019.49 1019.62 1019.78 1020.04 1020.30 1020.27 1020.35 1020.32 1020.45 1020.58 1020.62 1020.95 1020.93 1020.90 1020.98 1020.86 1020.46 1020.56 1020.81 1021.02 1021.04 1021.17
1019.99 1019.96 1020.03 1019.95 1019.86 1019.64 1019.52 1019.42 1019.45 1019.63 1019.82 1019.99 1019.98 1019.88 1019.76 1019.63 1019.74 1019.77 1019.91 1019.88 1019.83 1019.77 1019.91 1020.09 1020.30 1020.61 1020.63 1020.79 1020.66 1020.78 1021.04 1021.17 1021.10 1020.99 1021.04 1020.91 1020.70 1020.44 1020.44 1020.60 1021.03 1020.99 1021.15
1020.52 1020.52 1020.55 1020.32 1020.22 1020.12 1020.08 1020.01 1020.05 1020.14 1020.45 1020.67 1020.68 1020.67 1020.51 1020.36 1020.28 1020.27 1020.39 1020.37 1020.29 1020.18 1020.23 1020.36 1020.51 1020.78 1020.91 1020.90 1020.91 1021.09 1021.13 1021.24 1021.25 1021.29 1021.06 1020.84 1020.85 1020.89 1020.90 1021.02 1021.03 1020.94 1020.91
1020.87 1020.98 1020.91 1020.82 1020.66 1020.53 1020.63 1020.57 1020.55 1020.72 1020.97 1021.24 1021.45 1021.64 1021.48 1021.31 1021.15 1020.88 1020.73 1020.56 1020.45 1020.55 1020.75 1020.81 1020.93 1021.08 1021.15 1021.20 1021.29 1021.41 1021.55 1021.69 1021.77 1021.64 1021.43 1021.14 1021.05 1021.03 1020.86 1020.92 1020.69 1020.29 1020.19
1021.31 1021.39 1021.34 1021.14 1021.13 1021.10 1021.10 1021.01 1021.21 1021.47 1021.66 1021.98 1022.16 1022.23 1022.15 1021.92 1021.82 1021.67 1021.53 1021.27 1021.10 1021.00 1020.97 1021.26 1021.32 1021.42 1021.46 1021.51 1021.67 1021.79 1021.89 1021.97 1022.00 1021.64 1021.69 1021.36 1021.16 1020.96 1020.63 1020.27 1019.88 1019.83 1019.76
1021.84 1021.93 1021.97 1021.92 1021.80 1021.58 1021.40 1021.52 1021.87 1022.01 1022.24 1022.40 1022.38 1022.39 1022.34 1022.18 1021.84 1021.86 1021.83 1021.76 1021.72 1021.61 1021.26 1021.32 1021.40 1021.52 1021.52 1021.60 1021.66 1021.76 1021.85 1022.00 1021.91 1021.65 1021.65 1021.62 1021.00 1020.78 1020.23 1019.98 1019.86 1019.56 1019.42
1022.32 1022.59 1022.51 1022.52 1022.37 1022.12 1021.83 1021.93 1022.21 1022.38 1022.68 1022.69 1022.62 1022.50 1022.29 1022.19 1021.83 1021.90 1022.10 1022.21 1022.15 1021.94 1021.71 1021.54 1021.43 1021.33 1021.21 1021.13 1021.16 1021.75 1022.07 1022.49 1022.48 1022.06 1021.80 1021.92 1021.59 1021.20 1020.47 1020.09 1019.75 1019.31 1019.13
1022.87 1022.95 1022.89 1022.98 1022.83 1022.52 1021.96 1022.10 1022.39 1022.51 1022.80 1022.84 1022.79 1022.65 1022.34 1022.05 1021.82 1021.79 1022.13 1022.39 1022.41 1022.34 1022.20 1022.06 1022.02 1021.92 1021.85 1021.76 1021.37 1021.61 1021.92 1022.93 1023.26 1022.57 1021.80 1022.00 1021.87 1021.72 1021.19 1020.47 1020.14 1019.93 1019.98
Thickness
5694 5693 5691 5688 5686 5683 5680 5678 5676 5674 5671 5669 5667 5665 5663 5662 5660 5658 5655 5652 5649 5647 5644 5641 5638 5635 5633 5632 5630 5628 5626 5623 5621 5620 5620 5619 5619 5619 5619 5620 5619 5620 5619
5692 5690 5688 5686 5683 5681 5679 5676 5675 5672 5669 5666 5664 5661 5659 5658 5656 5654 5651 5648 5645 5642 5640 5637 5634 5631 5629 5627 5624 5623 5619 5617 5616 5613 5612 5612 5612 5612 5613 5613 5612 5611 5613
5691 5689 5686 5683 5680 5678 5676 5673 5672 5669 5665 5662 5659 5657 5655 5654 5652 5649 5646 5643 5639 5636 5633 5630 5626 5623 5621 5619 5616 5614 5613 5610 5608 5606 5606 5604 5604 5605 5605 5605 5605 5605 5604
5689 5687 5685 5682 5680 5677 5673 5669 5667 5665 5662 5658 5656 5653 5652 5649 5647 5644 5641 5637 5633 5630 5627 5623 5620 5618 5616 5614 5610 5606 5604 5602 5601 5600 5599 5597 5596 5596 5596 5598 5597 5597 5596
5687 5684 5683 5682 5679 5675 5672 5668 5665 5661 5658 5655 5652 5650 5647 5644 5642 5641 5638 5634 5631 5627 5624 5619 5616 5612 5610 5608 5607 5602 5598 5596 5594 5593 5592 5591 5590 5589 5588 5589 5589 5590 5590
5685 5683 5681 5678 5675 5672 5670 5666 5663 5659 5657 5653 5648 5647 5644 5642 5638 5638 5634 5630 5626 5623 5618 5614 5610 5608 5604 5599 5598 5597 5594 5590 5588 5587 5585 5584 5582 5582 5581 5580 5581 5581 5582
5683 5681 5678 5675 5672 5670 5669 5665 5660 5655 5650 5644 5638 5638 5638 5638 5634 5632 5629 5625 5622 5619 5615 5610 5605 5600 5597 5594 5591 5588 5586 5583 5579 5576 5575 5575 5574 5573 5572 5573 5573 5573 5574
5677 5675 5673 5671 5669 5666 5663 5660 5654 5648 5643 5637 5628 5621 5627 5631 5628 5625 5621 5619 5617 5611 5607 5602 5599 5594 5590 5586 5583 5580 5579 5577 5574 5570 5568 5567 5566 5566 5565 5564 5564 5564 5565
5675 5673 5670 5668 5665 5662 5659 5656 5651 5645 5641 5631 5626 5619 5612 5616 5612 5619 5615 5611 5609 5603 5601 5594 5591 5588 5584 5580 5577 5574 5571 5568 5567 5564 5560 5556 5555 5555 5555 5556 5553 5553 5553
5665 5664 5663 5662 5660 5657 5653 5652 5649 5644 5636 5631 5618 5615 5612 5610 5608 5611 5606 5602 5599 5594 5592 5586 5583 5580 5578 5574 5571 5567 5563 5560 5555 5552 5551 5549 5546 5545 5544 5543 5544 5545 5542
5656 5656 5655 5654 5653 5650 5648 5644 5641 5636 5632 5627 5619 5608 5604 5597 5591 5587 5603 5596 5588 5584 5579 5576 5574 5569 5565 5561 5559 5558 5554 5548 5544 5537 5543 5541 5540 5537 5535 5535 5533 5533 5531
5647 5646 5646 5646 5646 5645 5642 5640 5636 5630 5626 5621 5615 5608 5602 5595 5589 5579 5576 5585 5579 5575 5568 5564 5560 5556 5553 5548 5542 5539 5538 5536 5531 5529 5530 5528 5529 5528 5524 5522 5522 5519 5519
5635 5634 5635 5636 5638 5638 5636 5633 5629 5625 5620 5615 5609 5604 5598 5592 5585 5579 5574 5573 5564 5563 5558 5553 5544 5537 5534 5529 5527 5521 5513 5520 5520 5517 5522 5518 5517 5511 5514 5507 5508 5508 5505
5622 5623 5624 5625 5625 5625 5625 5624 5620 5617 5612 5609 5605 5597 5592 5587 5580 5573 5565 5558 5555 5549 5544 5538 5529 5520 5512 5508 5504 5504 5509 5501 5503 5501 5503 5503 5500 5502 5500 5494 5493 5494 5493
5613 5613 5613 5613 5613 5613 5612 5612 5610 5606 5602 5599 5598 5592 5585 5578 5573 5566 5559 5553 5546 5543 5535 5526 5512 5501 5493 5487 5485 5487 5487 5497 5493 5491 5492 5489 5489 5487 5484 5485 5483 5483 5480
5600 5600 5600 5600 5599 5598 5597 5596 5594 5591 5588 5585 5582 5579 5574 5566 5561 5554 5548 5541 5533 5526 5519 5507 5492 5482 5477 5473 5473 5468 5471 5477 5481 5477 5478 5478 5477 5473 5475 5476 5474 5472 5474
5586 5586 5586 5586 5585 5584 5583 5582 5579 5577 5574 5570 5566 5562 5555 5550 5545 5540 5534 5526 5519 5510 5502 5489 5477 5469 5464 5458 5457 5457 5457 5461 5465 5463 5465 5466 5468 5469 5469 5467 5465 5466 5465
5573 5573 5573 5572 5571 5570 5568 5567 5566 5564 5561 5557 5553 5548 5542 5539 5532 5526 5520 5515 5507 5498 5490 5482 5468 5461 5454 5448 5449 5447 5444 5450 5451 5453 5455 5457 5454 5460 5461 5457 5457 5457 5455
5561 5560 5560 5558 5557 5556 5555 5554 5552 5550 5548 5543 5536 5531 5528 5527 5521 5515 5509 5504 5497 5490 5482 5474 5464 5454 5450 5445 5443 5442 5443 5444 5442 5443 5444 5444 5447 5451 5451 5450 5448 5447 5445
5549 5548 5546 5545 5544 5543 5542 5541 5538 5535 5530 5525 5521 5517 5514 5511 5506 5501 5496 5491 5487 5483 5476 5469 5460 5450 5445 5440 5438 5436 5434 5433 5435 5436 5436 5438 5439 5442 5441 5439 5433 5433 5432
5537 5535 5534 5534 5533 5532 5529 5527 5525 5522 5517 5511 5507 5503 5500 5497 5494 5490 5485 5481 5478 5474 5469 5463 5457 5449 5443 5438 5434 5430 5429 5428 5427 5426 5429 5429 5429 5428 5426 5423 5421 5421 5421
5527 5524 5523 5521 5520 5520 5517 5515 5512 5509 5505 5499 5493 5486 5483 5481 5479 5479 5477 5474 5471 5466 5460 5455 5449 5444 5438 5433 5429 5425 5420 5417 5413 5416 5415 5416 5415 5414 5414 5413 5411 5413 5413
5515 5512 5511 5511 5508 5506 5504 5502 5499 5494 5490 5484 5477 5473 5471 5469 5467 5464 5463 5461 5460 5457 5452 5444 5439 5434 5430 5426 5420 5413 5412 5405 5405 5407 5405 5405 5404 5405 5404 5404 5405 5402 5401
5504 5501 5499 5496 5495 5495 5493 5490 5485 5480 5476 5471 5468 5464 5461 5459 5459 5456 5452 5450 5446 5443 5441 5437 5431 5426 5421 5418 5414 5408 5405 5400 5399 5396 5394 5387 5390 5390 5393 5391 5387 5386 5384
5493 5488 5488 5486 5483 5481 5482 5479 5474 5468 5464 5461 5460 5458 5456 5453 5453 5449 5443 5439 5436 5434 5430 5426 5422 5418 5414 5410 5406 5399 5393 5383 5382 5382 5380 5374 5373 5371 5374 5372 5370 5368 5364
5482 5479 5477 5475 5476 5470 5473 5469 5464 5461 5457 5455 5452 5450 5449 5447 5445 5442 5435 5430 5426 5423 5419 5415 5411 5407 5403 5399 5396 5391 5384 5369 5362 5359 5366 5357 5355 5352 5347 5352 5348 5345 5341